Weather History for Peachtree City, GA

Change the Weather History Date:

Friday, May 17, 2013

  Actual Average Record
Temperature  
Mean Temperature 70 °F 69 °F  
Max Temperature 82 °F 82 °F 89 °F (2001)
Min Temperature 57 °F 57 °F 39 °F (1997)
Degree Days  
Heating Degree Days 0 1  
Month to date heating degree days 58 25  
Since 1 July heating degree days 240 2944  
Cooling Degree Days 5 5  
Month to date cooling degree days 24 59  
Year to date cooling degree days 54 95  
Growing Degree Days 19 (Base 50)    
Moisture  
Dew Point 59 °F    
Average Humidity 63    
Maximum Humidity 93    
Minimum Humidity 33    
Precipitation  
Precipitation 0.03 in 0.10 in 0.11 in (2003)
Month to date precipitation 2.75 1.65  
Year to date precipitation 6.62 19.78  
Snow  
Snow 0.00 in - - ()
Month to date snowfall 0.0  
Since 1 July snowfall 0.0  
Snow Depth 0.00 in    
Sea Level Pressure  
Sea Level Pressure 30.07 in    
Wind  
Wind Speed 2 mph (South)    
Max Wind Speed 10 mph    
Max Gust Speed 17 mph    
Visibility 6 miles    
Events Rain    
T = Trace of Precipitation, MM = Missing Value Source: NWS Daily Summary

Daily Weather History Graph

Daily Weather History Graph

Search for Another Location

Airport:

Trip Planner

Search our weather history database for the weather conditions in past years. The results will help you decide how hot, cold, wet, or windy it might be!

Date:

Astronomy

May. 17, 2013 Rise Set
Actual Time 6:36 AM EDT 8:33 PM EDT
Civil Twilight 6:09 AM EDT 9:00 PM EDT
Nautical Twilight 5:35 AM EDT 9:34 PM EDT
Astronomical Twilight 5:00 AM EDT 10:09 PM EDT
Moon 12:59 PM EDT (5/17) 1:32 AM EDT (5/17)
Length of Visible Light 14h 51m
Length of Day
13h 56m
Waxing Crescent, 45% of the Moon is Illuminated
May 17
Waxing Crescent
May 18
First Quarter
May 25
Full
May 31
Last Quarter
Jun 8
New

Hourly Weather History & Observations

Time (EDT) Temp. Dew Point Humidity Pressure Visibility Wind Dir Wind Speed Gust Speed Precip Events Conditions
12:53 AM 60.1 °F 57.0 °F 90% 30.05 in 6.0 mi Calm Calm - N/A   Clear
1:53 AM 59.0 °F 55.9 °F 90% 30.04 in 5.0 mi Calm Calm - N/A   Clear
2:53 AM 57.9 °F 55.9 °F 93% 30.03 in 6.0 mi Calm Calm - N/A   Clear
3:53 AM 57.0 °F 55.0 °F 93% 30.04 in 6.0 mi Calm Calm - N/A   Clear
4:53 AM 57.9 °F 55.9 °F 93% 30.05 in 6.0 mi Calm Calm - N/A   Mostly Cloudy
5:53 AM 57.9 °F 55.9 °F 93% 30.08 in 4.0 mi Calm Calm - N/A   Clear
6:53 AM 59.0 °F 55.9 °F 90% 30.08 in 4.0 mi Calm Calm - N/A   Clear
8:53 AM 63.0 °F 59.0 °F 87% 30.11 in 6.0 mi Calm Calm - 0.00 in   Overcast
9:53 AM 66.9 °F 60.1 °F 79% 30.12 in 7.0 mi Calm Calm - N/A   Scattered Clouds
10:53 AM 71.1 °F 61.0 °F 70% 30.12 in 7.0 mi Calm Calm - N/A   Clear
11:53 AM 77.0 °F 55.0 °F 47% 30.11 in 9.0 mi SSE 4.6 mph - N/A   Clear
12:53 PM 78.1 °F 57.0 °F 48% 30.11 in 9.0 mi SSE 6.9 mph 17.3 mph N/A   Clear
1:53 PM 80.1 °F 51.1 °F 36% 30.09 in 9.0 mi SSW 8.1 mph - N/A   Partly Cloudy
3:53 PM 81.0 °F 48.9 °F 33% 30.06 in 9.0 mi Variable 4.6 mph - N/A   Partly Cloudy
4:53 PM 81.0 °F 51.1 °F 35% 30.05 in 9.0 mi Variable 3.5 mph - N/A   Scattered Clouds
5:53 PM 79.0 °F 59.0 °F 50% 30.04 in 9.0 mi South 4.6 mph - N/A   Partly Cloudy
6:53 PM 77.0 °F 63.0 °F 62% 30.04 in 8.0 mi Calm Calm - N/A   Clear
7:53 PM 75.0 °F 64.9 °F 71% 30.03 in 7.0 mi Calm Calm - N/A   Clear
8:53 PM 71.1 °F 64.9 °F 81% 30.04 in 8.0 mi Calm Calm - N/A   Scattered Clouds
9:53 PM 70.0 °F 64.9 °F 84% 30.04 in 7.0 mi Calm Calm - N/A   Overcast
10:53 PM 70.0 °F 64.9 °F 84% 30.05 in 5.0 mi Calm Calm - 0.00 in Rain Light Rain
11:50 PM 68.0 °F 64.4 °F 88% 30.08 in 2.0 mi Calm Calm - 0.02 in Rain Light Rain
11:53 PM 69.1 °F 66.0 °F 90% 30.06 in 2.5 mi Calm Calm - 0.02 in Rain Light Rain